Location: Pacheco
(37.9835°N, 122.0752°W)
Time: 17:38:13
(UTC+00:00)

BlueWalker 3 - Visible Passes

Search period start: 23 June 2024 00:00
Search period end: 03 July 2024 00:00
Orbit: 480 x 493 km, 53.2° (Epoch: 22 June)

Date Brightness Start Highest point End Pass type
(mag) Time Alt. Az. Time Alt. Az. Time Alt. Az.
23 Jun 5.2 05:36:02 10° NW 05:37:29 12° NNW 05:38:56 10° N visible
23 Jun 4.9 08:54:19 10° NNW 08:56:42 16° NNE 08:59:05 10° ENE visible
23 Jun 1.7 10:31:35 10° NW 10:35:20 86° NE 10:39:03 10° SE visible
24 Jun 5.2 05:10:07 10° NW 05:11:42 12° NNW 05:13:19 10° N visible
24 Jun 4.9 08:28:39 10° NNW 08:30:56 15° NNE 08:33:14 10° ENE visible
24 Jun 2.3 10:05:52 10° NW 10:08:49 53° NW 10:08:49 53° NW visible
25 Jun 5.1 04:44:12 10° NW 04:45:56 13° NNW 04:47:41 10° N visible
25 Jun 4.9 08:03:00 10° NNW 08:05:10 15° NNE 08:07:21 10° ENE visible
25 Jun 3.7 09:40:08 10° NW 09:41:43 24° NW 09:41:43 24° NW visible
26 Jun 5.0 04:18:17 10° NW 04:20:09 13° NNW 04:22:02 10° N visible
26 Jun 4.8 07:37:19 10° NNW 07:39:23 14° NNE 07:41:17 11° NE visible
26 Jun 4.2 09:14:25 10° NW 09:15:34 19° NW 09:15:34 19° NW visible
27 Jun 4.8 07:11:39 10° N 07:13:36 14° NNE 07:15:29 10° NE visible
27 Jun 4.3 08:48:40 10° NW 08:49:46 18° NW 08:49:46 18° NW visible
28 Jun 4.8 06:45:58 10° N 06:47:48 13° NNE 06:49:37 10° NE visible
28 Jun 4.3 08:22:56 10° NW 08:24:11 20° NW 08:24:11 20° NW visible
29 Jun 4.7 06:20:17 10° N 06:21:59 13° NNE 06:23:41 10° NE visible
29 Jun 4.1 07:57:11 10° NW 07:58:45 23° NNW 07:58:45 23° NNW visible
30 Jun 4.7 05:54:36 10° N 05:56:10 12° NNE 05:57:44 10° NE visible
30 Jun 3.9 07:31:25 10° NW 07:33:23 27° NNW 07:33:23 27° NNW visible
01 Jul 4.7 05:28:55 10° N 05:30:20 12° NNE 05:31:45 10° NE visible
01 Jul 3.5 07:05:40 10° NW 07:08:05 33° N 07:08:05 33° N visible
02 Jul 4.7 05:03:15 10° N 05:04:29 11° NNE 05:05:45 10° NE visible
02 Jul 3.1 06:39:54 10° NW 06:42:51 38° N 06:42:51 38° N visible
